Retour au catalogue

COSMOS 1877

ActifMilitairePO
NORAD 18336·PAYLOAD·🇷🇺 Russia

Lancé Sep 7, 1987 depuis Plesetsk Cosmodrome

Loading…

Prochains Passages (prochaines 24 heures)

TLE

FraisSource: Space-Track

Époque: Sep 14, 2026, 09:30 UTC

1 18336U 87074C   26257.39602369 -.00000005  00000-0 -85888-4 0  9995
2 18336  82.5596 240.4976 0001966 141.7494  26.7865 12.63668343799508

Suivez COSMOS 1877 en temps réel avec AllMySat

Download on the App Store